Time,TemperatureF,DewpointF,PressureIn,WindDirection,WindDirectionDegrees,WindSpeedMPH,WindSpeedGustMPH,Humidity,HourlyPrecipIn,Conditions,Clouds,dailyrainin,SolarRadiationWatts/m^2,SoftwareType,DateUTC
2013-11-05 00:02:00,47.0,29.0,-100.00,WSW,241,4.0,7.0,50,0.00,,,0.00,0.000000,,2013-11-05 08:02:00,
2013-11-05 00:42:00,59.0,27.0,-100.00,West,269,2.0,8.0,29,0.00,,,-99.99,0.000000,,2013-11-05 08:42:00,
2013-11-05 01:43:00,53.0,27.0,-100.00,SSW,192,2.0,6.0,36,-99.99,,,0.00,0.000000,,2013-11-05 09:43:00,
2013-11-05 01:53:00,53.0,27.0,-100.00,SSW,192,2.0,6.0,36,-99.99,,,0.00,0.000000,,2013-11-05 09:53:00,
2013-11-05 02:02:00,53.0,27.0,-100.00,SSW,192,2.0,6.0,36,-99.99,,,0.00,0.000000,,2013-11-05 10:02:00,
2013-11-05 02:43:00,48.0,29.0,-100.00,SW,219,3.0,5.0,48,0.00,,,0.00,0.000000,,2013-11-05 10:43:00,
2013-11-05 02:53:00,48.0,29.0,-100.00,SW,219,3.0,5.0,48,0.00,,,0.00,0.000000,,2013-11-05 10:53:00,
2013-11-05 03:02:00,48.0,29.0,-100.00,SW,219,3.0,5.0,48,0.00,,,0.00,0.000000,,2013-11-05 11:02:00,
2013-11-05 03:42:00,47.0,29.0,-100.00,South,176,2.0,4.0,49,0.00,,,0.00,0.000000,,2013-11-05 11:42:00,
2013-11-05 03:52:00,47.0,29.0,-100.00,South,176,2.0,4.0,49,0.00,,,0.00,0.000000,,2013-11-05 11:52:00,
2013-11-05 04:02:00,47.0,29.0,-100.00,South,176,2.0,4.0,49,0.00,,,0.00,0.000000,,2013-11-05 12:02:00,
2013-11-05 04:42:00,45.0,29.0,-100.00,SSE,162,0.0,4.0,53,0.00,,,0.00,0.000000,,2013-11-05 12:42:00,
2013-11-05 04:52:00,45.0,29.0,-100.00,SSE,162,0.0,4.0,53,0.00,,,0.00,0.000000,,2013-11-05 12:52:00,
2013-11-05 05:01:00,45.0,29.0,-100.00,SSE,162,0.0,4.0,53,0.00,,,0.00,0.000000,,2013-11-05 13:01:00,
2013-11-05 05:42:00,42.0,30.0,-100.00,SW,221,0.0,2.0,61,0.00,,,0.00,0.000000,,2013-11-05 13:42:00,
2013-11-05 05:52:00,42.0,30.0,-100.00,SW,221,0.0,2.0,61,0.00,,,0.00,0.000000,,2013-11-05 13:52:00,
2013-11-05 06:02:00,42.0,30.0,-100.00,SW,221,0.0,2.0,61,0.00,,,0.00,0.000000,,2013-11-05 14:02:00,
2013-11-05 06:42:00,42.0,27.0,-100.00,SW,222,1.0,2.0,56,0.00,,,0.00,0.000000,,2013-11-05 14:42:00,
2013-11-05 06:52:00,42.0,27.0,-100.00,SW,222,1.0,2.0,56,0.00,,,0.00,0.000000,,2013-11-05 14:52:00,
2013-11-05 07:02:00,42.0,27.0,-100.00,SW,222,1.0,2.0,56,0.00,,,0.00,0.000000,,2013-11-05 15:02:00,
2013-11-05 08:43:00,51.0,30.0,-100.00,SSE,150,2.0,4.0,45,0.00,,,0.00,90.000000,,2013-11-05 16:43:00,
2013-11-05 08:53:00,51.0,30.0,-100.00,SSE,150,2.0,4.0,45,0.00,,,0.00,90.000000,,2013-11-05 16:53:00,
2013-11-05 09:02:00,51.0,30.0,-100.00,SSE,150,2.0,4.0,45,0.00,,,0.00,90.000000,,2013-11-05 17:02:00,
2013-11-05 09:42:00,61.0,32.0,-100.00,East,87,2.0,5.0,33,0.00,,,0.00,342.000000,,2013-11-05 17:42:00,
2013-11-05 09:52:00,61.0,32.0,-100.00,East,87,2.0,5.0,33,0.00,,,0.00,342.000000,,2013-11-05 17:52:00,
2013-11-05 10:02:00,61.0,32.0,-100.00,East,87,2.0,5.0,33,0.00,,,0.00,342.000000,,2013-11-05 18:02:00,
2013-11-05 10:42:00,69.0,29.0,-100.00,WNW,293,2.0,5.0,22,0.00,,,0.00,494.000000,,2013-11-05 18:42:00,
2013-11-05 10:52:00,69.0,29.0,-100.00,WNW,293,2.0,5.0,22,0.00,,,0.00,494.000000,,2013-11-05 18:52:00,
2013-11-05 11:02:00,69.0,29.0,-100.00,WNW,293,2.0,5.0,22,0.00,,,0.00,494.000000,,2013-11-05 19:02:00,
2013-11-05 11:42:00,70.0,30.0,-100.00,North,360,3.0,8.0,23,0.00,,,0.00,592.000000,,2013-11-05 19:42:00,
2013-11-05 11:52:00,70.0,30.0,-100.00,North,360,3.0,8.0,23,0.00,,,0.00,592.000000,,2013-11-05 19:52:00,
2013-11-05 12:02:00,70.0,30.0,-100.00,North,360,3.0,8.0,23,0.00,,,0.00,592.000000,,2013-11-05 20:02:00,
2013-11-05 12:43:00,68.0,29.0,-100.00,SE,128,5.0,9.0,23,-99.99,,,0.00,629.000000,,2013-11-05 20:43:00,
2013-11-05 12:53:00,68.0,29.0,-100.00,SE,128,5.0,9.0,23,-99.99,,,0.00,629.000000,,2013-11-05 20:53:00,
2013-11-05 13:02:00,68.0,29.0,-100.00,SE,128,5.0,9.0,23,-99.99,,,0.00,629.000000,,2013-11-05 21:02:00,
2013-11-05 13:04:00,70.0,29.0,-100.00,SE,133,3.0,8.0,22,0.00,,,0.00,606.000000,,2013-11-05 21:04:00,
2013-11-05 13:44:00,70.0,29.0,-100.00,SE,133,3.0,8.0,22,0.00,,,0.00,606.000000,,2013-11-05 21:44:00,
2013-11-05 13:54:00,70.0,29.0,-100.00,SE,133,3.0,8.0,22,0.00,,,0.00,606.000000,,2013-11-05 21:54:00,
2013-11-05 14:43:00,69.0,30.0,-100.00,South,169,3.0,8.0,23,0.00,,,0.00,524.000000,,2013-11-05 22:43:00,
2013-11-05 14:53:00,69.0,30.0,-100.00,South,169,3.0,8.0,23,0.00,,,0.00,524.000000,,2013-11-05 22:53:00,
2013-11-05 15:03:00,69.0,30.0,-100.00,South,169,3.0,8.0,23,0.00,,,0.00,524.000000,,2013-11-05 23:03:00,
2013-11-05 15:42:00,63.0,31.0,-100.00,SSW,204,2.0,7.0,30,0.00,,,0.00,131.000000,,2013-11-05 23:42:00,
2013-11-05 15:53:00,63.0,31.0,-100.00,SSW,204,2.0,7.0,30,0.00,,,0.00,131.000000,,2013-11-05 23:53:00,
2013-11-05 16:03:00,63.0,31.0,-100.00,SSW,204,2.0,7.0,30,0.00,,,0.00,131.000000,,2013-11-06 00:03:00,
2013-11-05 16:42:00,60.0,35.0,-100.00,SW,221,1.0,5.0,39,0.00,,,0.00,22.000000,,2013-11-06 00:42:00,
2013-11-05 16:52:00,60.0,35.0,-100.00,SW,221,1.0,5.0,39,0.00,,,0.00,22.000000,,2013-11-06 00:52:00,
2013-11-05 17:02:00,60.0,35.0,-100.00,SW,221,1.0,5.0,39,0.00,,,0.00,22.000000,,2013-11-06 01:02:00,
2013-11-05 17:42:00,56.0,37.0,-100.00,WSW,244,0.0,4.0,49,0.00,,,0.00,16.000000,,2013-11-06 01:42:00,
2013-11-05 17:52:00,56.0,37.0,-100.00,WSW,244,0.0,4.0,49,0.00,,,0.00,16.000000,,2013-11-06 01:52:00,
2013-11-05 18:02:00,56.0,37.0,-100.00,WSW,244,0.0,4.0,49,0.00,,,0.00,16.000000,,2013-11-06 02:02:00,
2013-11-05 18:52:00,52.0,36.0,-100.00,WSW,256,1.0,2.0,55,0.00,,,0.00,1.000000,,2013-11-06 02:52:00,
2013-11-05 19:02:00,52.0,36.0,-100.00,WSW,256,1.0,2.0,55,0.00,,,0.00,1.000000,,2013-11-06 03:02:00,
2013-11-05 21:53:00,49.0,32.0,-100.00,West,276,2.0,3.0,52,-99.99,,,0.00,0.000000,,2013-11-06 05:53:00,
2013-11-05 22:03:00,49.0,32.0,-100.00,West,276,2.0,3.0,52,-99.99,,,0.00,0.000000,,2013-11-06 06:03:00,
2013-11-05 22:42:00,52.0,29.0,-100.00,SSW,196,1.0,4.0,41,0.00,,,0.00,0.000000,,2013-11-06 06:42:00,
2013-11-05 22:52:00,52.0,29.0,-100.00,SSW,196,1.0,4.0,41,0.00,,,0.00,0.000000,,2013-11-06 06:52:00,
2013-11-05 23:02:00,52.0,29.0,-100.00,SSW,196,1.0,4.0,41,0.00,,,0.00,0.000000,,2013-11-06 07:02:00,
2013-11-05 23:42:00,56.0,26.0,-100.00,WSW,243,2.0,6.0,31,0.00,,,0.00,0.000000,,2013-11-06 07:42:00,
2013-11-05 23:52:00,56.0,26.0,-100.00,WSW,243,2.0,6.0,31,0.00,,,0.00,0.000000,,2013-11-06 07:52:00,